Regional Weather Roundup
Issued by NWS

Home | Current Version | Previous Version | Graphics & Text | Print | Product List | Glossary On
Versions: 1 2 3 4 5 6 7 8 9 10 11 12 13 14 15 16 17 18 19 20 21 22 23 24 25 26 27 28 29 30 31 32 33 34 35 36 37 38 39 40 41 42 43 44 45 46 47 48 49 50
828
ASUS44 KMEG 250510
RWRTN
TENNESSEE HOURLY STATE WEATHER ROUNDUP
NATIONAL WEATHER SERVICE MEMPHIS TN
1200 AM CDT SUN JUN 25 2017

TNZ002-004-019-021-049-052-054-088>092-250600-
WEST TENNESSEE

CITY           SKY/WX    TMP DP  RH WIND       PRES   REMARKS
MEMPHIS INTL   MOCLDY    72  60  66 N8        30.17S
NWS MEMPHIS      N/A     68 N/A N/A MISG        N/A
JACKSON        CLEAR     64  60  87 CALM      30.17S
SOMERVILLE     CLEAR     64  61  88 CALM      30.16S
COVINGTON      CLEAR     66  59  77 CALM      30.18R
UNION CITY     CLEAR     63  59  88 CALM      30.17S
BOLIVAR        CLEAR     66  61  82 CALM      30.16S
PARIS          PTCLDY    59  57  94 CALM      30.17S
HUNTINGDON     CLEAR     61  57  88 CALM      30.17S
LEXINGTON      CLEAR     64  57  77 N5        30.17R
SELMER         CLEAR     66  61  82 NE5       30.17R
SAVANNAH       MOCLDY    64  64 100 CALM      30.16R
$$

TNZ008-025-027-028-033-062-065-066-250600-
NORTH MIDDLE TENNESSEE

CITY           SKY/WX    TMP DP  RH WIND       PRES   REMARKS
NASHVILLE      PTCLDY    70  54  56 N5        30.17R
PORTLAND       CLEAR     64  57  77 CALM      30.17R
CLARKSVILLE    CLEAR     59  55  87 NW3       30.17S
SMYRNA         PTCLDY    67  59  75 N6        30.17R
COOKEVILLE     CLEAR     63  61  94 CALM      30.15R
GALLATIN       CLEAR     66  57  72 NW5       30.19R
CROSSVILLE     PTCLDY    62  58  86 CALM      30.18S
$$

TNZ061-075-076-078-094-096-097-250600-
SOUTH MIDDLE TENNESSEE

CITY           SKY/WX    TMP DP  RH WIND       PRES   REMARKS
FAYETTEVILLE   CLEAR     68  61  77 N3        30.15R
TULLAHOMA      CLEAR     64  59  82 N5        30.17R
WINCHESTER     CLEAR     63  61  94 CALM        N/A
MCMINNVILLE    CLEAR     64  63  94 CALM      30.16R
COLUMBIA       CLEAR     66  64  94 CALM      30.15R
SHELBYVILLE    CLEAR     64  63  94 N3        30.16R
$$

TNZ017-018-042-046-047-250600-
NORTHEAST TENNESSEE

CITY           SKY/WX    TMP DP  RH WIND       PRES   REMARKS
TRI CITIES     PTCLDY    66  61  84 SW3       30.13R
ELIZABETHTON   MOCLDY    63  61  94 CALM      30.13S
$$

TNZ012-013-036-069-073-074-250600-
CENTRAL EAST TENNESSEE

CITY           SKY/WX    TMP DP  RH WIND       PRES   REMARKS
KNOXVILLE      MOCLDY    71  60  68 CALM      30.12R
OAK RIDGE      PTCLDY    67  60  78 CALM      30.14R
DOWNTOWN KNOXV MOCLDY    66  64  94 CALM      30.12R
GATLINBURG     CLOUDY    70  63  78 CALM      30.13R
MORRISTOWN     CLOUDY    70  59  68 N5        30.12S
JACKSBORO      CLEAR     66  59  77 CALM      30.18R
$$

TNZ083-085-099-250600-
SOUTHEAST TENNESSEE

CITY           SKY/WX    TMP DP  RH WIND       PRES   REMARKS
CHATTANOOGA    CLEAR     70  60  70 N3        30.13R
$$

SKY/WX REPORTED AS FAIR MEANS FEW OR NO CLOUDS BELOW
12 THOUSAND FEET.





USA.gov is the U.S. government's official web portal to all federal, state and local government web resources and services.